Home > Time Zones > World Clock > Weather > Japan > Naha > Past weeks

Flag for Japan Weather past 2 weeks in Naha, Okinawa, Japan

Now
82 °F

Passing clouds.


Feels Like: 89 °F
Forecast: 82 / 85 °F
Wind: 13 mph from Southeast

Location: Naha Airport

Current Time: Sep 22, 2014 at 9:21:35 PM

Latest Report: Sep 22, 2014 at 8:30 PM


Visibility: N/A

Pressure: 29.83 "Hg

Humidity: 79%

Dew point: 75 °F

Location of NahaLocation

Historic Weather in Naha — Graph

°F

Naha temperature yesterday

Maximum temperature yesterday: 90 °F (at 9:30 AM)
Minimum temperature yesterday: 84 °F (at 2:30 AM)
Average temperature yesterday: 87 °F

Past Weeks' High & Low Weather Summary

 TemperatureHumidityPressure
High91 °F (Sep 14, 1:00 PM)89% (Sep 11, 7:30 AM)29.92 "Hg (Sep 11, 7:30 AM)
Low81 °F (Sep 9, 2:30 AM)52% (Sep 17, 3:00 PM)29.68 "Hg (Sep 7, 8:00 PM)
Average85 °F73%29.80 "Hg
* Reported Sep 7 8:00 PM — Sep 22 8:00 PM, Naha, Weather by CustomWeather, © 2014

Note: Actual official high and low records may vary slightly from our data, if they occured in-between our weather recording intervals... More about our weather records

Advertising

Naha weather history for previous 24 hours

 ConditionsComfort  
Time TempWeatherWind HumidityBarometerVisibility
8:00 PM
Sep 22
82 °FPassing clouds.12 mph79%29.83 "HgN/A
7:30 PM82 °FPartly cloudy.12 mph84%29.83 "HgN/A
7:00 PM82 °FPassing clouds.13 mph79%29.83 "HgN/A
6:30 PM82 °FPartly cloudy.10 mph79%29.80 "HgN/A
6:00 PM82 °FPartly sunny.12 mph79%29.80 "HgN/A
5:30 PM82 °FPartly sunny.14 mph79%29.80 "HgN/A
5:00 PM82 °FPartly sunny.10 mph79%29.80 "HgN/A
4:30 PM81 °FSprinkles. Broken clouds.16 mph84%29.80 "HgN/A
4:00 PM82 °FRain showers. Partly sunny.17 mph79%29.80 "HgN/A
3:30 PM84 °FSprinkles. Broken clouds.14 mph89%29.80 "HgN/A
3:00 PM86 °FRain showers. Broken clouds.16 mph79%29.80 "HgN/A
2:30 PM86 °FRain showers. Partly sunny.16 mph75%29.80 "HgN/A
2:00 PM88 °FScattered showers. Broken clouds.18 mph70%29.80 "HgN/A
1:30 PM88 °FBroken clouds.18 mph70%29.80 "HgN/A
1:00 PM88 °FBroken clouds.18 mph70%29.83 "HgN/A
12:30 PM88 °FSprinkles. Broken clouds.17 mph70%29.83 "HgN/A
12:00 PM88 °FBroken clouds.18 mph75%29.83 "HgN/A
11:30 AM90 °FBroken clouds.17 mph67%29.86 "HgN/A
11:00 AM88 °FBroken clouds.17 mph70%29.86 "HgN/A
10:30 AM88 °FPartly sunny.17 mph75%29.86 "HgN/A
10:00 AM88 °FPartly sunny.15 mph70%29.89 "HgN/A
9:30 AM88 °FPartly sunny.12 mph70%29.86 "HgN/A
9:00 AM86 °FPartly sunny.15 mph75%29.86 "HgN/A
8:30 AM86 °FBroken clouds.14 mph75%29.86 "HgN/A
8:00 AM86 °FPartly sunny.12 mph75%29.86 "HgN/A
7:30 AM84 °FPartly sunny.12 mph79%29.83 "HgN/A
7:00 AM84 °FPartly sunny.10 mph79%29.83 "HgN/A
6:30 AM84 °FBroken clouds.10 mph79%29.83 "HgN/A
6:00 AM84 °FPassing clouds.12 mph79%29.83 "HgN/A
5:30 AM84 °FPassing clouds.12 mph79%29.83 "HgN/A
5:00 AM84 °FPassing clouds.13 mph79%29.83 "HgN/A
4:30 AM84 °FPassing clouds.10 mph74%29.83 "HgN/A
4:00 AM84 °FPassing clouds.12 mph79%29.83 "HgN/A
3:30 AM84 °FPassing clouds.13 mph79%29.83 "HgN/A
3:00 AM84 °FPassing clouds.12 mph79%29.83 "HgN/A
2:30 AM84 °FPassing clouds.13 mph79%29.83 "HgN/A
2:00 AM84 °FPassing clouds.13 mph79%29.83 "HgN/A
1:30 AM84 °FPassing clouds.10 mph79%29.83 "HgN/A
1:00 AM84 °FPassing clouds.12 mph74%29.83 "HgN/A
12:30 AM84 °FPassing clouds.12 mph79%29.83 "HgN/A
12:00 AM84 °FPassing clouds.14 mph79%29.83 "HgN/A
11:30 PM
Sep 21
84 °FPassing clouds.13 mph79%29.86 "HgN/A
11:00 PM84 °FPassing clouds.12 mph79%29.86 "HgN/A
10:30 PM84 °FPassing clouds.13 mph79%29.86 "HgN/A
10:00 PM86 °FPassing clouds.15 mph75%29.86 "HgN/A
9:30 PM86 °FPassing clouds.13 mph75%29.86 "HgN/A
9:00 PM86 °FPassing clouds.15 mph75%29.86 "HgN/A
Weather by CustomWeather, © 2014

See weather overviewHow to use our weather pages